Location: Le Vaud
(46.4779°N, 6.2346°E)
Time: 17:35:31
(UTC+00:00)

CZ-4B R/B - Pass Details

Date: 18 February 2020
Orbit: 497 x 646 km, 97.8° (Epoch: 27 March)

Event Time Altitude Azimuth Distance (km) Brightness Sun altitude
Rises 04:15:30 0° 14° (NNE) 2,861 7.8 -24.6°
Reaches altitude 10° 04:17:39 10° 15° (NNE) 1,975 6.9 -24.2°
Maximum altitude 04:21:58 80° 103° (ESE) 642 4.1 -23.5°
Enters shadow 04:23:42 37° 185° (S) 989 4.9 -23.2°
